Volver al catálogo

STARLINK-34173

ActivoComunicacionesVLEO
NORAD 64196·PAYLOAD·🇺🇸 United States

Lanzado May 28, 2025 desde Cape Canaveral Space Force Station

Loading…

Próximos Pases (próximas 24 horas)

TLE

ActualizadoSource: CelesTrak SupGP

Época: Sep 15, 2026, 03:23 UTC

1 64196C 25113AC  26258.14145833  .00001843  00000+0  59237-4 0  2583
2 64196  53.1593 289.7072 0001319  93.5004 183.2705 15.31708476    13

Sigue STARLINK-34173 en tiempo real con AllMySat

Download on the App Store